OE3UKW Weather Reports


Display with metric or nautical units.
time (UTC)temp
F
wind
direction
speed
MPH
gust
MPH
rain 1hr
in
rain 24hr
in
rain mn
in
humidity
%
barometer
mb
20260905062111 65 311 9.0 16.0 0.00 0.00 0.00 56 1020.6
20260905061111 66 333 10.0 18.0 0.00 0.00 0.00 55 1020.3
20260905060111 67 317 11.0 17.0 0.00 0.00 0.00 52 1020.6
20260905055111 68 342 15.0 21.0 0.00 0.00 0.00 47 1020.2
20260905054111 68 321 9.0 17.0 0.00 0.00 0.00 47 1019.9
20260905053110 68 336 12.0 20.0 0.00 0.00 0.00 48 1019.1
20260905052111 68 9 15.0 23.0 0.00 0.00 0.00 48 1018.9
20260905051110 69 309 18.0 23.0 0.00 0.00 0.00 47 1018.5
20260905050110 69 360 16.0 25.0 0.00 0.00 0.00 47 1018.2
20260905045110 69 338 13.0 19.0 0.00 0.00 0.00 48 1018.6
20260905044110 69 321 13.0 18.0 0.00 0.00 0.00 49 1018.7
20260905043111 69 326 11.0 19.0 0.00 0.00 0.00 49 1018.5
20260905042110 69 296 9.0 12.0 0.00 0.00 0.00 49 1018.2
20260905041110 69 308 8.0 12.0 0.00 0.00 0.00 48 1017.8
20260905040110 70 310 9.0 16.0 0.00 0.00 0.00 47 1017.9
20260905035110 70 333 13.0 19.0 0.00 0.00 0.00 47 1017.8
20260905034110 70 338 12.0 19.0 0.00 0.00 0.00 47 1017.4
20260905033110 71 343 10.0 15.0 0.00 0.00 0.00 47 1016.8
20260905032110 71 331 12.0 16.0 0.00 0.00 0.00 48 1016.8
20260905031110 72 342 15.0 25.0 0.00 0.00 0.00 47 1016.4
20260905030110 73 334 19.0 24.0 0.00 0.00 0.00 47 1016.0
20260905025110 74 346 20.0 31.0 0.00 0.00 0.00 47 1015.5
20260905024110 74 327 19.0 27.0 0.00 0.00 0.00 47 1015.6
20260905023110 72 288 9.0 15.0 0.00 0.00 0.00 48 1015.3
20260905022110 71 296 7.0 15.0 0.00 0.00 0.00 52 1015.3
20260905021110 70 273 5.0 8.0 0.00 0.00 0.00 53 1014.6
20260905020110 69 233 5.0 11.0 0.00 0.00 0.00 54 1014.4
20260905015110 67 244 10.0 14.0 0.00 0.00 0.00 58 1014.6
20260905014110 66 259 1.0 5.0 0.00 0.00 0.00 60 1014.3
20260905013110 65 271 3.0 6.0 0.00 0.00 0.00 61 1014.3
20260905012110 65 279 0.0 2.0 0.00 0.00 0.00 62 1014.1
20260905011110 64 279 1.0 2.0 0.00 0.00 0.00 62 1014.1
20260905005110 64 186 0.0 3.0 0.00 0.00 0.00 63 1014.2
20260905004110 64 188 1.0 2.0 0.00 0.00 0.00 63 1014.1
20260905003110 64 200 0.0 0.0 0.00 0.00 0.00 63 1014.2
20260905002110 64 200 0.0 0.0 0.00 0.00 0.00 63 1014.1
20260905001110 64 200 0.0 0.0 0.00 0.00 0.00 63 1014.0
20260905000110 64 200 0.0 0.0 0.00 0.00 0.00 63 1014.0
20260904235109 64 200 0.0 0.0 0.00 0.00 0.00 63 1013.8
20260904234110 64 204 2.0 2.0 0.00 0.00 0.00 62 1013.8
20260904233110 64 205 1.0 2.0 0.00 0.00 0.00 62 1013.9
20260904232110 64 132 1.0 5.0 0.00 0.00 0.00 62 1013.8
20260904231109 64 132 5.0 7.0 0.00 0.00 0.00 62 1013.8
20260904230110 64 320 1.0 2.0 0.00 0.00 0.00 61 1013.5
20260904225110 64 333 4.0 4.0 0.00 0.00 0.00 61 1013.3
20260904224110 65 340 3.0 4.0 0.00 0.00 0.00 61 1013.6
20260904223109 65 341 0.0 0.0 0.00 0.00 0.00 60 1013.5
20260904222110 65 341 0.0 0.0 0.00 0.00 0.00 59 1013.5
20260904221109 66 341 0.0 0.0 0.00 0.00 0.00 59 1013.5
20260904220110 66 341 0.0 0.0 0.00 0.00 0.00 57 1013.5
20260904215109 67 341 0.0 0.0 0.00 0.00 0.00 57 1013.6
20260904214109 67 341 0.0 0.0 0.00 0.00 0.00 56 1013.6
20260904213109 68 341 0.0 0.0 0.00 0.00 0.00 55 1013.7
20260904212109 68 341 0.0 0.0 0.00 0.00 0.00 55 1013.4
20260904211109 69 341 0.0 0.0 0.00 0.00 0.00 53 1013.5
20260904210109 70 341 0.0 0.0 0.00 0.00 0.00 52 1013.4
20260904205109 70 341 0.0 0.0 0.00 0.00 0.00 51 1013.4
20260904204109 71 343 0.0 0.0 0.00 0.00 0.00 50 1013.3
20260904203109 72 343 0.0 2.0 0.00 0.00 0.00 49 1013.4
20260904202114 72 355 3.0 5.0 0.00 0.00 0.00 48 1013.3
20260904201114 73 206 0.0 3.0 0.00 0.00 0.00 46 1013.4
20260904200114 74 154 3.0 3.0 0.00 0.00 0.00 45 1013.6
20260904195114 76 155 1.0 2.0 0.00 0.00 0.00 44 1013.6
20260904194114 77 156 1.0 2.0 0.00 0.00 0.00 42 1013.7
20260904193114 78 184 1.0 2.0 0.00 0.00 0.00 41 1013.7
20260904192114 79 184 1.0 2.0 0.00 0.00 0.00 40 1013.9
20260904191114 79 184 1.0 2.0 0.00 0.00 0.00 39 1013.8
20260904190114 79 184 4.0 7.0 0.00 0.00 0.00 38 1013.6
20260904185113 79 194 6.0 9.0 0.00 0.00 0.00 38 1013.5
20260904184113 79 207 3.0 7.0 0.00 0.00 0.00 38 1013.4
20260904183113 80 208 5.0 6.0 0.00 0.00 0.00 38 1013.5
20260904182114 80 213 4.0 5.0 0.00 0.00 0.00 37 1013.4
20260904181113 81 194 4.0 7.0 0.00 0.00 0.00 36 1013.3
20260904180113 82 218 4.0 5.0 0.00 0.00 0.00 35 1013.2
20260904175113 83 200 3.0 6.0 0.00 0.00 0.00 34 1013.2
20260904174114 84 209 4.0 5.0 0.00 0.00 0.00 32 1013.1
20260904173113 85 178 6.0 8.0 0.00 0.00 0.00 31 1013.3
20260904172113 85 171 4.0 7.0 0.00 0.00 0.00 30 1013.3
20260904171113 86 186 6.0 8.0 0.00 0.00 0.00 29 1013.5
20260904170113 87 193 6.0 12.0 0.00 0.00 0.00 26 1013.7
20260904165124 87 238 4.0 8.0 0.00 0.00 0.00 26 1013.7
20260904164113 87 232 4.0 6.0 0.00 0.00 0.00 25 1013.8
20260904163113 88 238 4.0 8.0 0.00 0.00 0.00 25 1013.9
20260904162113 89 221 7.0 13.0 0.00 0.00 0.00 24 1013.9
20260904161113 89 231 4.0 10.0 0.00 0.00 0.00 24 1014.0
20260904160113 89 245 7.0 12.0 0.00 0.00 0.00 24 1014.3
20260904155113 89 223 7.0 16.0 0.00 0.00 0.00 24 1014.3
20260904154113 89 225 6.0 11.0 0.00 0.00 0.00 24 1014.5
20260904153113 89 237 12.0 16.0 0.00 0.00 0.00 24 1014.7
20260904152113 89 231 9.0 18.0 0.00 0.00 0.00 24 1014.7
20260904151113 89 237 14.0 19.0 0.00 0.00 0.00 24 1014.9
20260904150112 89 215 14.0 20.0 0.00 0.00 0.00 24 1015.0
20260904145112 89 233 12.0 20.0 0.00 0.00 0.00 25 1015.2
20260904144113 89 215 11.0 18.0 0.00 0.00 0.00 25 1015.5
20260904143113 89 242 13.0 22.0 0.00 0.00 0.00 25 1015.6
20260904142112 89 240 11.0 19.0 0.00 0.00 0.00 26 1015.8
20260904141121 89 225 8.0 14.0 0.00 0.00 0.00 26 1015.8
20260904140112 89 211 9.0 15.0 0.00 0.00 0.00 26 1016.0
20260904135112 89 241 9.0 19.0 0.00 0.00 0.00 26 1016.2
20260904134112 89 234 11.0 17.0 0.00 0.00 0.00 26 1016.2
20260904133112 89 225 10.0 16.0 0.00 0.00 0.00 26 1016.4
20260904132112 89 241 11.0 18.0 0.00 0.00 0.00 27 1016.6
20260904131112 89 235 10.0 17.0 0.00 0.00 0.00 27 1016.8
20260904130112 89 229 9.0 16.0 0.00 0.00 0.00 28 1016.8
20260904125112 88 231 15.0 20.0 0.00 0.00 0.00 27 1017.0
20260904124112 88 234 16.0 19.0 0.00 0.00 0.00 28 1017.0
20260904123112 87 244 14.0 21.0 0.00 0.00 0.00 29 1017.1
20260904122112 87 244 10.0 16.0 0.00 0.00 0.00 29 1017.2
20260904121112 88 240 17.0 22.0 0.00 0.00 0.00 29 1017.4
20260904120112 87 224 10.0 16.0 0.00 0.00 0.00 28 1017.4
20260904115112 87 279 11.0 19.0 0.00 0.00 0.00 29 1017.5
20260904114112 87 248 9.0 18.0 0.00 0.00 0.00 31 1017.6
20260904113112 87 326 10.0 15.0 0.00 0.00 0.00 29 1017.6
20260904112112 87 302 5.0 17.0 0.00 0.00 0.00 30 1017.8
20260904111112 88 281 7.0 18.0 0.00 0.00 0.00 31 1018.1
20260904110112 87 259 7.0 15.0 0.00 0.00 0.00 33 1018.2
20260904105112 85 229 9.0 21.0 0.00 0.00 0.00 34 1018.4
20260904104112 86 264 10.0 14.0 0.00 0.00 0.00 33 1018.6
20260904103112 86 237 12.0 18.0 0.00 0.00 0.00 34 1019.0
20260904102112 85 265 11.0 25.0 0.00 0.00 0.00 35 1019.2
20260904101112 84 261 11.0 19.0 0.00 0.00 0.00 36 1019.4
20260904100111 83 242 15.0 19.0 0.00 0.00 0.00 36 1019.5
20260904095112 84 234 11.0 18.0 0.00 0.00 0.00 36 1019.7
20260904094112 83 294 4.0 12.0 0.00 0.00 0.00 38 1019.8
20260904093112 82 289 11.0 17.0 0.00 0.00 0.00 38 1019.9
20260904092113 81 270 6.0 12.0 0.00 0.00 0.00 38 1019.9
20260904091112 81 235 13.0 18.0 0.00 0.00 0.00 39 1020.0
20260904090111 81 225 14.0 15.0 0.00 0.00 0.00 39 1020.2
20260904085111 80 249 11.0 16.0 0.00 0.00 0.00 41 1020.3
20260904084111 80 231 12.0 15.0 0.00 0.00 0.00 40 1020.4
20260904083111 78 232 9.0 17.0 0.00 0.00 0.00 43 1020.5
20260904082111 77 244 12.0 19.0 0.00 0.00 0.00 43 1020.4
20260904081111 76 251 9.0 17.0 0.00 0.00 0.00 44 1020.6
20260904080111 76 234 8.0 14.0 0.00 0.00 0.00 44 1020.5
20260904075111 76 231 8.0 14.0 0.00 0.00 0.00 44 1020.4
20260904074111 76 258 9.0 16.0 0.00 0.00 0.00 44 1020.4
20260904073111 76 264 11.0 15.0 0.00 0.00 0.00 45 1020.3
20260904072111 76 245 12.0 17.0 0.00 0.00 0.00 44 1020.5
20260904071111 76 228 9.0 13.0 0.00 0.00 0.00 44 1020.5
20260904070111 76 248 6.0 10.0 0.00 0.00 0.00 45 1020.6
20260904065111 75 230 11.0 13.0 0.00 0.00 0.00 46 1020.4
20260904064111 74 288 5.0 11.0 0.00 0.00 0.00 47 1020.3
20260904063111 73 246 8.0 13.0 0.00 0.00 0.00 48 1020.4